Satellite-Ground Cal/Val Region Overpasses Predictions

Prediction of Satellite NPP Overpassing Cal/Val Region: PacNW

Region Location: (Latitude: 10.00, Longitude: 139.50) to (Latitude: 22.70, Longitude: 165.60).

Table of predicted overpasses for the next 14.0 days since TLE Epoch: 9/21/2013
Interval Starting Time Starting Location Ending Time Ending Location
1 09/21/2013 15:56:27 ( 22.66, 145.95) 09/21/2013 16:00:02 ( 10.04, 142.94)
2 09/22/2013 03:05:33 ( 10.04, 153.46) 09/22/2013 03:09:08 ( 22.66, 150.45)
3 09/22/2013 15:37:26 ( 22.69, 150.72) 09/22/2013 15:41:02 ( 10.01, 147.69)
4 09/23/2013 02:46:32 ( 10.01, 158.22) 09/23/2013 02:50:08 ( 22.69, 155.20)
5 09/23/2013 15:18:25 ( 22.66, 155.46) 09/23/2013 15:22:00 ( 10.03, 152.46)
6 09/24/2013 02:27:31 ( 10.05, 162.97) 09/24/2013 02:31:06 ( 22.66, 159.96)
7 09/24/2013 14:59:24 ( 22.68, 160.23) 09/24/2013 15:03:00 ( 10.00, 157.21)
8 09/25/2013 02:11:05 ( 19.12, 165.59) 09/25/2013 02:12:06 ( 22.70, 164.71)
9 09/25/2013 03:50:00 ( 10.02, 142.36) 09/25/2013 03:53:24 ( 22.00, 139.51)
10 09/25/2013 14:40:23 ( 22.65, 164.98) 09/25/2013 14:43:58 ( 10.03, 161.97)
11 09/25/2013 16:21:53 ( 22.65, 139.60) 09/25/2013 16:22:00 ( 22.24, 139.50)
12 09/26/2013 03:30:59 ( 10.05, 147.11) 09/26/2013 03:34:34 ( 22.67, 144.10)
13 09/26/2013 16:02:52 ( 22.67, 144.37) 09/26/2013 16:06:27 ( 10.05, 141.36)
14 09/27/2013 03:11:58 ( 10.03, 151.87) 09/27/2013 03:15:33 ( 22.65, 148.86)
15 09/27/2013 15:43:51 ( 22.70, 149.13) 09/27/2013 15:47:27 ( 10.02, 146.11)
16 09/28/2013 02:52:56 ( 10.00, 156.63) 09/28/2013 02:56:32 ( 22.68, 153.61)
17 09/28/2013 15:24:50 ( 22.66, 153.88) 09/28/2013 15:28:25 ( 10.04, 150.87)
18 09/29/2013 02:33:56 ( 10.04, 161.38) 09/29/2013 02:37:31 ( 22.66, 158.37)
19 09/29/2013 15:05:49 ( 22.68, 158.64) 09/29/2013 15:09:25 ( 10.00, 155.62)
20 09/30/2013 02:15:35 ( 12.43, 165.59) 09/30/2013 02:18:30 ( 22.70, 163.12)
21 09/30/2013 03:56:24 ( 10.02, 140.77) 09/30/2013 03:57:57 ( 15.48, 139.50)
22 09/30/2013 14:46:48 ( 22.65, 163.39) 09/30/2013 14:50:23 ( 10.03, 160.38)
23 10/01/2013 03:37:24 ( 10.06, 145.52) 10/01/2013 03:40:59 ( 22.68, 142.51)
24 10/01/2013 14:30:49 ( 11.99, 165.59) 10/01/2013 14:31:22 ( 10.05, 165.14)
25 10/01/2013 16:09:17 ( 22.67, 142.78) 10/01/2013 16:12:52 ( 10.05, 139.77)
26 10/02/2013 03:18:22 ( 10.04, 150.28) 10/02/2013 03:21:57 ( 22.66, 147.27)
27 10/02/2013 15:50:15 ( 22.69, 147.54) 10/02/2013 15:53:51 ( 10.01, 144.52)
28 10/03/2013 02:59:21 ( 10.02, 155.04) 10/03/2013 03:02:57 ( 22.70, 152.02)
29 10/03/2013 15:31:15 ( 22.65, 152.29) 10/03/2013 15:34:50 ( 10.03, 149.28)
30 10/04/2013 02:40:20 ( 10.06, 159.79) 10/04/2013 02:43:55 ( 22.68, 156.78)
31 10/04/2013 15:12:13 ( 22.67, 157.05) 10/04/2013 15:15:48 ( 10.05, 154.04)


NCC Satellite Cal/Val Overpasses Prediction Service
